• In United Kingdom
  • List of Countries
  • For 7 days
  • Water Temperature
  • Satellite Maps
  • Weather Map
  • Weather Widgets
  • user-avatar
    Login

    Hourly Weather Santiago de Compostela

    Today, 16 August, Thursday

    Time Temperature Precipitation Wind Pressure Humidity
    00:00 +18°C° 0 mm 3 mps 742 mmHg 95%
    01:00 +18°C° 0 mm 3 mps 742 mmHg 95%
    02:00 +18°C° 0 mm 3 mps 742 mmHg 95%
    03:00 +18°C° 0 mm 3 mps 742 mmHg 94%
    04:00 +18°C° 0 mm 3 mps 742 mmHg 94%
    05:00 +18°C° 0 mm 3 mps 742 mmHg 93%
    06:00 +19°C° 0 mm 3 mps 742 mmHg 88%
    07:00 +20°C° 0 mm 3 mps 742 mmHg 83%
    08:00 +20°C° 0 mm 3 mps 743 mmHg 78%
    09:00 +22°C° 0 mm 3 mps 743 mmHg 71%
    10:00 +25°C° 0 mm 3 mps 743 mmHg 64%
    11:00 +26°C° 0 mm 4 mps 743 mmHg 57%
    12:00 +26°C° 0 mm 4 mps 743 mmHg 56%
    13:00 +27°C° 0 mm 4 mps 743 mmHg 55%
    14:00 +27°C° 0 mm 5 mps 743 mmHg 55%
    15:00 +26°C° 0 mm 5 mps 743 mmHg 62%
    16:00 +23°C° 0 mm 5 mps 743 mmHg 70%
    17:00 +22°C° 0 mm 5 mps 743 mmHg 77%
    18:00 +21°C° 0 mm 5 mps 743 mmHg 81%
    19:00 +19°C° 0 mm 4 mps 744 mmHg 85%
    20:00 +18°C° 0 mm 4 mps 744 mmHg 89%
    21:00 +18°C° 0 mm 4 mps 744 mmHg 89%
    22:00 +18°C° 0 mm 4 mps 745 mmHg 89%
    23:00 +18°C° 0 mm 4 mps 745 mmHg 88%

    Tomorrow, 17 August, Friday

    Time Temperature Precipitation Wind Pressure Humidity
    00:00 +16°C° 0 mm 5 mps 745 mmHg 87%
    01:00 +16°C° 0 mm 5 mps 745 mmHg 85%
    02:00 +16°C° 0 mm 5 mps 745 mmHg 83%
    03:00 +16°C° 0 mm 5 mps 745 mmHg 84%
    04:00 +15°C° 0 mm 5 mps 745 mmHg 84%
    05:00 +15°C° 0 mm 4 mps 745 mmHg 84%
    06:00 +16°C° 0 mm 5 mps 745 mmHg 79%
    07:00 +17°C° 0 mm 5 mps 745 mmHg 74%
    08:00 +19°C° 0 mm 5 mps 745 mmHg 69%
    09:00 +21°C° 0 mm 5 mps 745 mmHg 64%
    10:00 +22°C° 0 mm 5 mps 745 mmHg 60%
    11:00 +23°C° 0 mm 5 mps 745 mmHg 55%
    12:00 +25°C° 0 mm 5 mps 745 mmHg 53%
    13:00 +26°C° 0 mm 5 mps 745 mmHg 51%
    14:00 +26°C° 0 mm 6 mps 744 mmHg 49%
    15:00 +24°C° 0 mm 6 mps 744 mmHg 52%
    16:00 +23°C° 0 mm 6 mps 744 mmHg 56%
    17:00 +22°C° 0 mm 6 mps 744 mmHg 60%
    18:00 +21°C° 0 mm 5 mps 744 mmHg 66%
    19:00 +19°C° 0 mm 5 mps 744 mmHg 72%
    20:00 +17°C° 0 mm 5 mps 745 mmHg 78%
    21:00 +16°C° 0 mm 5 mps 745 mmHg 80%
    22:00 +16°C° 0 mm 5 mps 745 mmHg 81%
    23:00 +15°C° 0 mm 4 mps 744 mmHg 83%

    Day after tomorrow, 18 August, Saturday

    Time Temperature Precipitation Wind Pressure Humidity
    00:00 +15°C° 0 mm 4 mps 744 mmHg 83%
    01:00 +15°C° 0 mm 4 mps 744 mmHg 84%
    02:00 +14°C° 0 mm 4 mps 744 mmHg 84%
    03:00 +14°C° 0 mm 4 mps 744 mmHg 84%
    04:00 +14°C° 0 mm 4 mps 744 mmHg 84%
    05:00 +14°C° 0 mm 4 mps 744 mmHg 85%
    06:00 +17°C° 0 mm 4 mps 744 mmHg 74%
    07:00 +20°C° 0 mm 4 mps 744 mmHg 63%
    08:00 +22°C° 0 mm 4 mps 744 mmHg 52%
    09:00 +26°C° 0 mm 4 mps 744 mmHg 45%
    10:00 +28°C° 0 mm 4 mps 744 mmHg 38%
    11:00 +30°C° 0 mm 4 mps 744 mmHg 31%
    12:00 +32°C° 0 mm 4 mps 744 mmHg 30%
    13:00 +33°C° 0 mm 4 mps 743 mmHg 29%
    14:00 +34°C° 0 mm 4 mps 743 mmHg 28%
    15:00 +32°C° 0 mm 4 mps 743 mmHg 32%
    16:00 +30°C° 0 mm 4 mps 743 mmHg 37%
    17:00 +29°C° 0 mm 4 mps 743 mmHg 41%
    18:00 +26°C° 0 mm 4 mps 743 mmHg 49%
    19:00 +23°C° 0 mm 4 mps 743 mmHg 56%
    20:00 +20°C° 0 mm 4 mps 743 mmHg 64%
    21:00 +19°C° 0 mm 3 mps 743 mmHg 66%
    22:00 +19°C° 0 mm 3 mps 743 mmHg 69%
    23:00 +18°C° 0 mm 3 mps 743 mmHg 71%

    19 August, Sunday

    Time Temperature Precipitation Wind Pressure Humidity
    00:00 +18°C° 0 mm 3 mps 743 mmHg 72%
    01:00 +17°C° 0 mm 3 mps 743 mmHg 73%
    02:00 +17°C° 0 mm 3 mps 743 mmHg 74%
    03:00 +17°C° 0 mm 3 mps 743 mmHg 74%
    04:00 +17°C° 0 mm 3 mps 743 mmHg 73%
    05:00 +16°C° 0 mm 3 mps 743 mmHg 73%
    06:00 +19°C° 0 mm 3 mps 744 mmHg 64%
    07:00 +22°C° 0 mm 3 mps 744 mmHg 54%
    08:00 +26°C° 0 mm 3 mps 744 mmHg 45%
    09:00 +28°C° 0 mm 3 mps 744 mmHg 39%
    10:00 +31°C° 0 mm 3 mps 744 mmHg 33%
    11:00 +34°C° 0 mm 3 mps 745 mmHg 27%
    12:00 +35°C° 0 mm 4 mps 744 mmHg 26%
    13:00 +35°C° 0 mm 4 mps 744 mmHg 25%
    14:00 +36°C° 0 mm 4 mps 744 mmHg 25%
    15:00 +34°C° 0 mm 4 mps 744 mmHg 30%
    16:00 +32°C° 0 mm 4 mps 744 mmHg 35%
    17:00 +30°C° 0 mm 5 mps 744 mmHg 40%
    18:00 +27°C° 0 mm 4 mps 744 mmHg 47%
    19:00 +25°C° 0 mm 4 mps 744 mmHg 54%
    20:00 +22°C° 0 mm 4 mps 745 mmHg 61%
    21:00 +21°C° 0 mm 4 mps 745 mmHg 65%
    22:00 +20°C° 0 mm 4 mps 744 mmHg 69%
    23:00 +19°C° 0 mm 3 mps 744 mmHg 72%

    20 August, Monday

    Time Temperature Precipitation Wind Pressure Humidity
    00:00 +19°C° 0 mm 3 mps 744 mmHg 75%
    01:00 +18°C° 0 mm 3 mps 744 mmHg 78%
    02:00 +18°C° 0 mm 3 mps 744 mmHg 81%
    03:00 +17°C° 0 mm 3 mps 744 mmHg 82%
    04:00 +17°C° 0 mm 3 mps 744 mmHg 84%
    05:00 +17°C° 0 mm 3 mps 744 mmHg 85%
    06:00 +19°C° 0 mm 3 mps 744 mmHg 75%
    07:00 +22°C° 0 mm 3 mps 744 mmHg 65%
    08:00 +25°C° 0 mm 3 mps 744 mmHg 55%
    09:00 +28°C° 0 mm 3 mps 744 mmHg 48%
    10:00 +30°C° 0 mm 3 mps 744 mmHg 41%
    11:00 +34°C° 0 mm 3 mps 744 mmHg 34%
    12:00 +34°C° 0 mm 4 mps 744 mmHg 33%
    13:00 +34°C° 0 mm 4 mps 744 mmHg 32%
    14:00 +35°C° 0 mm 4 mps 743 mmHg 31%
    15:00 +33°C° 0 mm 4 mps 743 mmHg 37%
    16:00 +32°C° 0 mm 5 mps 743 mmHg 43%
    17:00 +29°C° 0 mm 5 mps 743 mmHg 48%
    18:00 +27°C° 0 mm 4 mps 743 mmHg 57%
    19:00 +23°C° 0 mm 4 mps 743 mmHg 66%
    20:00 +21°C° 0 mm 4 mps 744 mmHg 75%
    21:00 +20°C° 0 mm 4 mps 743 mmHg 79%
    22:00 +19°C° 0 mm 4 mps 743 mmHg 84%
    23:00 +19°C° 0 mm 4 mps 743 mmHg 88%

    21 August, Tuesday

    Time Temperature Precipitation Wind Pressure Humidity
    00:00 +18°C° 0 mm 4 mps 743 mmHg 89%
    01:00 +18°C° 0 mm 3 mps 743 mmHg 91%
    02:00 +18°C° 0 mm 3 mps 742 mmHg 92%
    03:00 +18°C° 0 mm 3 mps 743 mmHg 92%
    04:00 +18°C° 0 mm 3 mps 743 mmHg 93%
    05:00 +17°C° 0 mm 3 mps 743 mmHg 93%
    06:00 +20°C° 0 mm 3 mps 743 mmHg 83%
    07:00 +22°C° 0 mm 3 mps 743 mmHg 73%
    08:00 +25°C° 0 mm 3 mps 743 mmHg 63%
    09:00 +28°C° 0 mm 3 mps 743 mmHg 56%
    10:00 +30°C° 0 mm 4 mps 743 mmHg 49%
    11:00 +33°C° 0 mm 4 mps 743 mmHg 42%
    12:00 +33°C° 0 mm 4 mps 743 mmHg 41%
    13:00 +34°C° 0 mm 4 mps 742 mmHg 40%
    14:00 +34°C° 0 mm 4 mps 742 mmHg 39%
    15:00 +32°C° 0 mm 5 mps 742 mmHg 46%
    16:00 +30°C° 0 mm 5 mps 742 mmHg 52%
    17:00 +28°C° 0 mm 5 mps 742 mmHg 59%
    18:00 +26°C° 0 mm 5 mps 742 mmHg 68%
    19:00 +23°C° 0 mm 4 mps 742 mmHg 77%
    20:00 +20°C° 0 mm 4 mps 743 mmHg 87%
    21:00 +20°C° 0 mm 4 mps 742 mmHg 89%
    22:00 +20°C° 0 mm 4 mps 742 mmHg 91%
    23:00 +19°C° 0 mm 4 mps 742 mmHg 94%
    Show more